2003-01-01 01:00:00,-44.58,-44.54,-16.46,-16.20
2003-01-01 02:00:00,-36.57,-36.35,-15.85,-15.61
2003-01-01 03:00:00,-22.79,-22.83,-15.55,-15.29
2003-01-01 04:00:00,-22.23,-22.28,-15.33,-15.07
2003-01-01 05:00:00,-22.04,-22.08,-15.13,-14.87
2003-01-01 06:00:00,-21.72,-21.79,-14.83,-14.56
2003-01-01 07:00:00,-21.33,-21.35,-14.41,-14.16
2003-01-01 08:00:00,-21.18,-21.21,-14.22,-13.97
2003-01-01 09:00:00,-21.19,-21.23,-14.19,-13.96
2003-01-01 10:00:00,-21.09,-21.12,-14.06,-13.81
2003-01-01 11:00:00,-20.88,-20.89,-13.79,-13.54
2003-01-01 12:00:00,-20.57,-20.60,-13.51,-13.24
2003-01-01 13:00:00,-20.37,-20.39,-13.29,-13.01
2003-01-01 14:00:00,-20.34,-20.35,-13.26,-12.96
2003-01-01 15:00:00,-20.23,-20.24,-13.10,-12.81
2003-01-01 16:00:00,-19.98,-20.00,-12.85,-12.55
2003-01-01 17:00:00,-19.95,-19.98,-12.80,-12.49
2003-01-01 18:00:00,-19.69,-19.71,-12.51,-12.19
2003-01-01 19:00:00,-19.50,-19.53,-12.29,-11.97
2003-01-01 20:00:00,-19.47,-19.50,-12.18,-11.89
2003-01-01 21:00:00,-19.51,-19.50,-12.14,-11.86
2003-01-01 22:00:00,-19.72,-19.71,-12.33,-12.05
2003-01-01 23:00:00,-19.65,-19.63,-12.24,-11.95
2003-01-02 00:00:00,-19.64,-19.59,-12.20,-11.91
2003-01-02 01:00:00,-19.60,-19.58,-12.17,-11.87
2003-01-02 02:00:00,-19.47,-19.44,-12.05,-11.73
2003-01-02 03:00:00,-19.43,-19.42,-12.00,-11.71
2003-01-02 04:00:00,-19.40,-19.39,-11.95,-11.67
2003-01-02 05:00:00,-19.29,-19.29,-11.85,-11.55
2003-01-02 06:00:00,-19.31,-19.29,-11.83,-11.52
2003-01-02 07:00:00,-19.37,-19.37,-11.89,-11.59
2003-01-02 08:00:00,-19.30,-19.23,-11.80,-11.46
2003-01-02 09:00:00,-19.26,-19.28,-11.78,-11.47
2003-01-02 10:00:00,-19.26,-19.25,-11.78,-11.44
2003-01-02 11:00:00,-19.25,-19.29,-11.76,-11.44
2003-01-02 12:00:00,-19.50,-19.55,-12.02,-11.71
2003-01-02 13:00:00,-19.66,-19.70,-12.17,-11.85
2003-01-02 14:00:00,-19.59,-19.59,-12.05,-11.74
2003-01-02 15:00:00,-19.67,-19.68,-12.12,-11.81
2003-01-02 16:00:00,-19.71,-19.70,-12.10,-11.80
2003-01-02 17:00:00,-19.83,-19.82,-12.22,-11.93
2003-01-02 18:00:00,-19.82,-19.81,-12.21,-11.90
2003-01-02 19:00:00,-20.23,-20.28,-12.56,-12.33
2003-01-02 20:00:00,-20.55,-20.50,-12.95,-12.59
2003-01-02 21:00:00,-20.32,-20.35,-12.71,-12.42
2003-01-02 22:00:00,-20.58,-20.63,-12.99,-12.70
2003-01-02 23:00:00,-20.75,-20.81,-13.17,-12.88
2003-01-03 00:00:00,-20.87,-20.91,-13.30,-12.98
2003-01-03 01:00:00,-21.83,-21.88,-14.20,-14.00
2003-01-03 02:00:00,-21.71,-21.79,-14.04,-13.87
2003-01-03 03:00:00,-21.68,-21.68,-14.11,-13.77
2003-01-03 04:00:00,-21.86,-21.86,-14.14,-13.94
2003-01-03 05:00:00,-22.92,-22.71,-14.97,-14.84
2003-01-03 06:00:00,-24.68,-24.49,-16.83,-16.70
2003-01-03 07:00:00,-25.29,-25.04,-17.52,-17.29
2003-01-03 08:00:00,-24.74,-24.34,-17.62,-17.53
2003-01-03 09:00:00,-21.47,-21.13,-18.39,-18.28
2003-01-03 10:00:00,-20.88,-20.54,-18.34,-18.10
2003-01-03 11:00:00,-20.85,-20.69,-18.23,-18.14
2003-01-03 12:00:00,-22.56,-22.13,-19.57,-19.61
2003-01-03 13:00:00,-23.51,-23.07,-20.88,-20.73
2003-01-03 14:00:00,-23.43,-22.83,-20.37,-20.19
2003-01-03 15:00:00,-24.03,-23.58,-20.70,-20.62
2003-01-03 16:00:00,-24.33,-23.75,-20.71,-20.55
2003-01-03 17:00:00,-23.88,-23.21,-20.03,-19.86
2003-01-03 18:00:00,-24.35,-23.37,-20.03,-19.95
2003-01-03 19:00:00,-24.20,-23.28,-20.17,-19.81
2003-01-03 20:00:00,-22.95,-22.09,-18.83,-18.51
2003-01-03 21:00:00,-23.03,-22.21,-18.91,-18.62
2003-01-03 22:00:00,-22.65,-21.87,-18.64,-18.37
2003-01-03 23:00:00,-22.41,-21.48,-18.19,-17.90
2003-01-04 00:00:00,-21.98,-21.15,-17.92,-17.65
2003-01-04 01:00:00,-20.81,-19.65,-16.50,-16.19
2003-01-04 02:00:00,-20.36,-19.48,-16.15,-15.99
2003-01-04 03:00:00,-20.78,-19.62,-16.26,-16.21
2003-01-04 04:00:00,-20.33,-19.59,-16.42,-16.19
2003-01-04 05:00:00,-21.04,-20.28,-17.17,-16.82
2003-01-04 06:00:00,-20.57,-19.94,-16.71,-16.41
2003-01-04 07:00:00,-23.20,-22.54,-16.32,-16.12
2003-01-04 08:00:00,-41.45,-40.96,-16.18,-15.90
2003-01-04 09:00:00,-38.66,-37.96,-15.68,-15.52
2003-01-04 10:00:00,-38.95,-38.34,-17.17,-16.93
2003-01-04 11:00:00,-38.94,-38.27,-16.97,-16.75
2003-01-04 12:00:00,-38.32,-37.84,-16.55,-16.28
2003-01-04 13:00:00,-37.78,-36.98,-16.10,-15.77
2003-01-04 14:00:00,-32.13,-31.46,-14.76,-14.44
2003-01-04 15:00:00,-29.60,-29.43,-15.85,-15.92
2003-01-04 16:00:00,-30.70,-30.22,-17.40,-17.22
2003-01-04 17:00:00,-29.99,-29.58,-16.75,-16.51
2003-01-04 18:00:00,-30.43,-30.05,-17.05,-16.90
2003-01-04 19:00:00,-30.48,-29.99,-17.11,-16.83
2003-01-04 20:00:00,-31.08,-30.65,-17.67,-17.56
2003-01-04 21:00:00,-30.83,-30.30,-17.29,-17.14
2003-01-04 22:00:00,-31.26,-30.81,-17.90,-17.70
2003-01-04 23:00:00,-31.81,-31.28,-18.18,-18.24
2003-01-05 00:00:00,-29.92,-29.48,-18.72,-18.63
2003-01-05 01:00:00,-28.49,-27.58,-19.20,-18.92
2003-01-05 02:00:00,-26.63,-25.88,-17.77,-17.46
2003-01-05 03:00:00,-26.69,-25.85,-17.51,-17.46
2003-01-05 04:00:00,-27.61,-26.90,-18.69,-18.51
2003-01-05 05:00:00,-27.02,-26.34,-18.28,-18.06
2003-01-05 06:00:00,-28.24,-27.60,-19.50,-19.35
2003-01-05 07:00:00,-28.09,-27.25,-18.89,-18.86
2003-01-05 08:00:00,-28.17,-27.35,-19.31,-19.02
2003-01-05 09:00:00,-28.28,-27.63,-19.25,-19.19
2003-01-05 10:00:00,-28.29,-27.42,-19.29,-19.06
2003-01-05 11:00:00,-27.41,-26.62,-18.36,-18.20
2003-01-05 12:00:00,-27.99,-27.38,-19.07,-19.02
2003-01-05 13:00:00,-27.97,-27.17,-18.80,-18.67
2003-01-05 14:00:00,-28.37,-27.58,-19.41,-19.09
2003-01-05 15:00:00,-29.00,-28.41,-19.83,-19.78
2003-01-05 16:00:00,-28.26,-27.55,-18.85,-18.66
2003-01-05 17:00:00,-29.05,-28.33,-19.64,-19.48
2003-01-05 18:00:00,-28.66,-27.85,-19.40,-19.11
2003-01-05 19:00:00,-28.93,-28.22,-19.50,-19.40
2003-01-05 20:00:00,-28.96,-28.32,-19.39,-19.40
2003-01-05 21:00:00,-28.83,-27.86,-19.23,-19.03
2003-01-05 22:00:00,-29.29,-28.73,-19.88,-19.73
2003-01-05 23:00:00,-28.99,-28.40,-19.63,-19.51
2003-01-06 00:00:00,-29.02,-28.40,-19.76,-19.56
2003-01-06 01:00:00,-29.23,-28.63,-19.87,-19.74
2003-01-06 02:00:00,-28.57,-27.84,-19.21,-18.90
2003-01-06 03:00:00,-28.10,-27.47,-18.64,-18.48
2003-01-06 04:00:00,-27.94,-27.25,-18.71,-18.39
2003-01-06 05:00:00,-28.38,-27.84,-18.96,-18.88
2003-01-06 06:00:00,-29.22,-28.50,-19.78,-19.69
2003-01-06 07:00:00,-28.29,-27.55,-18.95,-18.69
2003-01-06 08:00:00,-27.75,-27.13,-18.62,-18.31
2003-01-06 09:00:00,-26.51,-25.79,-17.39,-17.06
2003-01-06 10:00:00,-25.52,-24.88,-16.61,-16.38
2003-01-06 11:00:00,-24.99,-24.27,-16.11,-15.78
2003-01-06 12:00:00,-28.99,-28.36,-13.97,-13.61
2003-01-06 13:00:00,-23.72,-23.26,-12.11,-11.72
2003-01-06 14:00:00,-22.40,-22.07,-11.37,-10.93
2003-01-06 15:00:00,-21.34,-21.10,-10.27,-9.85
2003-01-06 16:00:00,-20.56,-20.53,-9.31,-8.85
2003-01-06 17:00:00,-20.47,-20.59,-8.17,-7.94
2003-01-06 18:00:00,-19.89,-19.92,-6.88,-6.63
2003-01-06 19:00:00,-19.44,-19.36,-5.96,-5.30
2003-01-06 20:00:00,-19.15,-19.14,-4.91,-4.34
2003-01-06 21:00:00,-19.65,-19.62,-4.92,-4.38
2003-01-06 22:00:00,-20.14,-20.11,-5.04,-4.53
2003-01-06 23:00:00,-20.25,-20.21,-5.05,-4.53
2003-01-07 00:00:00,-20.62,-20.59,-5.26,-4.75
2003-01-07 01:00:00,-20.93,-20.90,-5.44,-4.94
2003-01-07 02:00:00,-21.73,-21.69,-6.16,-5.69
2003-01-07 03:00:00,-22.60,-22.55,-7.06,-6.63
2003-01-07 04:00:00,-23.79,-23.73,-8.27,-7.88
2003-01-07 05:00:00,-24.66,-24.62,-9.19,-8.82
2003-01-07 06:00:00,-24.87,-24.85,-9.45,-9.08
2003-01-07 07:00:00,-24.97,-24.95,-9.60,-9.23
2003-01-07 08:00:00,-25.10,-25.09,-9.71,-9.31
2003-01-07 09:00:00,-25.39,-25.38,-9.97,-9.58
2003-01-07 10:00:00,-25.52,-25.51,-10.09,-9.69
2003-01-07 11:00:00,-25.35,-25.34,-9.96,-9.55
2003-01-07 12:00:00,-25.29,-25.29,-9.87,-9.44
2003-01-07 13:00:00,-25.35,-25.35,-9.94,-9.54
2003-01-07 14:00:00,-25.31,-25.28,-9.92,-9.53
2003-01-07 15:00:00,-25.00,-24.97,-9.58,-9.19
2003-01-07 16:00:00,-24.66,-24.67,-9.25,-8.83
2003-01-07 17:00:00,-24.94,-24.98,-9.48,-9.10
2003-01-07 18:00:00,-24.65,-24.68,-9.14,-8.77
2003-01-07 19:00:00,-25.60,-25.63,-10.23,-9.84
2003-01-07 20:00:00,-25.31,-25.33,-9.80,-9.48
2003-01-07 21:00:00,-25.84,-25.87,-10.45,-10.04
2003-01-07 22:00:00,-26.10,-26.19,-10.73,-10.37
2003-01-07 23:00:00,-25.66,-25.72,-10.20,-9.86
2003-01-08 00:00:00,-24.47,-24.40,-9.13,-8.48
2003-01-08 01:00:00,-23.40,-23.39,-7.86,-7.34
2003-01-08 02:00:00,-23.36,-23.35,-7.80,-7.31
2003-01-08 03:00:00,-23.01,-23.00,-7.43,-6.93
2003-01-08 04:00:00,-22.04,-22.02,-6.42,-5.89
2003-01-08 05:00:00,-21.27,-21.24,-5.64,-5.05
2003-01-08 06:00:00,-18.07,-17.71,-4.78,-4.23
2003-01-08 07:00:00,-8.43,-8.42,-5.31,-4.83
2003-01-08 08:00:00,-9.48,-9.48,-6.31,-5.85
2003-01-08 09:00:00,-10.37,-10.37,-7.23,-6.79
2003-01-08 10:00:00,-11.02,-11.03,-7.89,-7.43
2003-01-08 11:00:00,-11.91,-11.92,-8.75,-8.33
2003-01-08 12:00:00,-12.34,-12.33,-9.16,-8.76
2003-01-08 13:00:00,-12.59,-12.58,-9.43,-9.04
2003-01-08 14:00:00,-12.62,-12.61,-9.45,-9.08
2003-01-08 15:00:00,-12.65,-12.64,-9.49,-9.10
2003-01-08 16:00:00,-12.66,-12.65,-9.50,-9.11
2003-01-08 17:00:00,-12.65,-12.66,-9.51,-9.11
2003-01-08 18:00:00,-12.56,-12.59,-9.44,-9.01
2003-01-08 19:00:00,-12.59,-12.61,-9.47,-9.05
2003-01-08 20:00:00,-12.51,-12.52,-9.34,-8.94
2003-01-08 21:00:00,-12.81,-12.84,-9.66,-9.27
2003-01-08 22:00:00,-12.82,-12.86,-9.68,-9.28
2003-01-08 23:00:00,-12.84,-12.86,-9.70,-9.28
2003-01-09 00:00:00,-12.92,-12.89,-9.75,-9.33
2003-01-09 01:00:00,-12.72,-12.70,-9.55,-9.15
2003-01-09 02:00:00,-13.26,-13.40,-10.08,-9.79
2003-01-09 03:00:00,-12.95,-12.97,-9.86,-9.38
2003-01-09 04:00:00,-13.88,-14.00,-10.71,-10.38
2003-01-09 05:00:00,-14.84,-14.87,-11.65,-11.32
2003-01-09 06:00:00,-15.62,-15.65,-12.36,-12.11
2003-01-09 07:00:00,-15.40,-15.35,-12.20,-11.86
2003-01-09 08:00:00,-15.26,-15.32,-12.07,-11.77
2003-01-09 09:00:00,-15.81,-15.91,-12.63,-12.35
2003-01-09 10:00:00,-16.08,-16.14,-12.90,-12.59
2003-01-09 11:00:00,-16.31,-16.37,-13.07,-12.82
2003-01-09 12:00:00,-16.97,-16.98,-13.67,-13.47
2003-01-09 13:00:00,-18.32,-18.30,-14.90,-14.81
2003-01-09 14:00:00,-22.76,-22.36,-16.17,-16.20
2003-01-09 15:00:00,-21.72,-21.54,-16.22,-16.06
2003-01-09 16:00:00,-24.56,-24.23,-16.61,-16.61
2003-01-09 17:00:00,-37.17,-36.71,-16.03,-15.77
2003-01-09 18:00:00,-39.62,-39.20,-16.80,-16.67
2003-01-09 19:00:00,-33.79,-33.51,-18.36,-18.31
2003-01-09 20:00:00,-25.27,-24.76,-18.34,-18.06
2003-01-09 21:00:00,-25.63,-25.26,-18.26,-18.25
2003-01-09 22:00:00,-26.78,-26.37,-18.67,-18.50
2003-01-09 23:00:00,-28.31,-27.85,-18.75,-18.56
2003-01-10 00:00:00,-33.00,-32.47,-18.78,-18.65
2003-01-10 01:00:00,-36.42,-35.92,-18.95,-18.79
2003-01-10 02:00:00,-38.18,-37.65,-18.47,-18.26
2003-01-10 03:00:00,-40.04,-39.60,-17.91,-17.72
2003-01-10 04:00:00,-27.66,-27.19,-17.50,-17.34
2003-01-10 05:00:00,-24.20,-23.71,-17.48,-17.39
2003-01-10 06:00:00,-24.59,-24.11,-18.02,-17.87
2003-01-10 07:00:00,-24.91,-23.99,-17.84,-17.76
2003-01-10 08:00:00,-24.61,-23.82,-17.69,-17.62
2003-01-10 09:00:00,-24.66,-23.84,-17.83,-17.65
2003-01-10 10:00:00,-24.91,-24.15,-17.98,-17.89
2003-01-10 11:00:00,-24.19,-23.39,-17.60,-17.24
2003-01-10 12:00:00,-22.70,-21.97,-16.29,-16.00
2003-01-10 13:00:00,-22.08,-21.41,-15.80,-15.65
2003-01-10 14:00:00,-20.62,-19.94,-14.58,-14.17
2003-01-10 15:00:00,-19.58,-19.10,-13.78,-13.50
2003-01-10 16:00:00,-19.19,-18.73,-13.42,-13.16
2003-01-10 17:00:00,-18.57,-18.12,-13.01,-12.61
2003-01-10 18:00:00,-16.44,-16.17,-11.27,-10.87
2003-01-10 19:00:00,-12.27,-12.15,-7.22,-6.74
2003-01-10 20:00:00,-12.08,-12.03,-7.03,-6.55
2003-01-10 21:00:00,-15.33,-15.50,-10.04,-9.89
2003-01-10 22:00:00,-16.63,-16.77,-11.70,-11.30
2003-01-10 23:00:00,-15.12,-15.09,-10.32,-9.60
2003-01-11 00:00:00,-11.28,-11.28,-6.26,-5.73
2003-01-11 01:00:00,-11.77,-11.80,-6.68,-6.21
2003-01-11 02:00:00,-11.90,-11.87,-6.84,-6.35
2003-01-11 03:00:00,-10.58,-10.52,-5.51,-4.93
2003-01-11 04:00:00,-10.22,-10.21,-5.11,-4.55
2003-01-11 05:00:00,-10.33,-10.32,-5.15,-4.64
2003-01-11 06:00:00,-10.38,-10.36,-5.17,-4.66
2003-01-11 07:00:00,-10.33,-10.30,-5.14,-4.60
2003-01-11 08:00:00,-10.04,-10.03,-4.85,-4.31
2003-01-11 09:00:00,-9.92,-9.92,-4.75,-4.20
2003-01-11 10:00:00,-9.44,-9.41,-4.29,-3.70
2003-01-11 11:00:00,-9.21,-9.20,-4.03,-3.47
2003-01-11 12:00:00,-9.23,-9.21,-4.00,-3.46
2003-01-11 13:00:00,-10.23,-10.24,-4.98,-4.49
2003-01-11 14:00:00,-11.04,-11.03,-5.79,-5.31
2003-01-11 15:00:00,-11.28,-11.28,-6.02,-5.54
2003-01-11 16:00:00,-12.02,-12.09,-6.78,-6.34
2003-01-11 17:00:00,-12.52,-12.55,-7.37,-6.84
2003-01-11 18:00:00,-12.59,-12.58,-7.36,-6.86
2003-01-11 19:00:00,-13.28,-13.28,-8.01,-7.57
2003-01-11 20:00:00,-14.67,-14.74,-9.35,-9.04
2003-01-11 21:00:00,-15.46,-15.39,-10.19,-9.79
2003-01-11 22:00:00,-15.86,-15.88,-10.58,-10.27
2003-01-11 23:00:00,-16.52,-16.49,-11.22,-10.91
2003-01-12 00:00:00,-17.18,-17.22,-11.92,-11.64
2003-01-12 01:00:00,-17.95,-17.93,-12.66,-12.38
2003-01-12 02:00:00,-18.48,-18.48,-13.20,-12.95
2003-01-12 03:00:00,-19.38,-19.37,-14.05,-13.91
2003-01-12 04:00:00,-18.80,-18.80,-13.52,-13.27
2003-01-12 05:00:00,-20.06,-20.16,-14.69,-14.67
2003-01-12 06:00:00,-22.30,-21.87,-16.37,-16.24
2003-01-12 07:00:00,-23.31,-22.99,-16.69,-16.60
2003-01-12 08:00:00,-22.97,-22.71,-16.36,-16.08
2003-01-12 09:00:00,-21.32,-21.21,-14.79,-14.50
2003-01-12 10:00:00,-21.01,-20.96,-14.54,-14.30
2003-01-12 11:00:00,-20.97,-21.01,-14.64,-14.40
2003-01-12 12:00:00,-20.68,-20.79,-14.47,-14.24
2003-01-12 13:00:00,-20.38,-20.47,-14.25,-14.00
2003-01-12 14:00:00,-20.18,-20.27,-14.09,-13.82
2003-01-12 15:00:00,-17.58,-17.45,-11.67,-11.08
2003-01-12 16:00:00,-15.48,-15.53,-9.65,-9.26
2003-01-12 17:00:00,-15.24,-15.25,-9.51,-9.08
2003-01-12 18:00:00,-14.80,-14.81,-9.06,-8.64
2003-01-12 19:00:00,-14.91,-14.94,-9.18,-8.77
2003-01-12 20:00:00,-15.17,-15.19,-9.44,-9.04
2003-01-12 21:00:00,-15.25,-15.26,-9.51,-9.12
2003-01-12 22:00:00,-15.78,-15.80,-10.04,-9.65
2003-01-12 23:00:00,-16.22,-16.27,-10.50,-10.15
2003-01-13 00:00:00,-16.59,-16.63,-10.86,-10.51
2003-01-13 01:00:00,-17.17,-17.21,-11.43,-11.10
2003-01-13 02:00:00,-17.68,-17.74,-11.95,-11.64
2003-01-13 03:00:00,-18.20,-18.23,-12.45,-12.16
2003-01-13 04:00:00,-18.57,-18.62,-12.85,-12.57
2003-01-13 05:00:00,-19.16,-19.23,-13.41,-13.17
2003-01-13 06:00:00,-20.35,-20.40,-14.60,-14.37
2003-01-13 07:00:00,-20.93,-21.01,-15.19,-14.98
2003-01-13 08:00:00,-22.19,-22.28,-16.42,-16.28
2003-01-13 09:00:00,-23.01,-23.08,-17.27,-17.11
2003-01-13 10:00:00,-23.31,-23.31,-17.39,-17.20
2003-01-13 11:00:00,-25.13,-25.15,-17.32,-17.18
2003-01-13 12:00:00,-25.17,-25.17,-17.14,-17.04
2003-01-13 13:00:00,-24.59,-24.58,-17.06,-16.94
2003-01-13 14:00:00,-24.14,-24.16,-16.67,-16.50
2003-01-13 15:00:00,-23.31,-23.31,-15.86,-15.65
2003-01-13 16:00:00,-22.69,-22.68,-15.21,-15.01
2003-01-13 17:00:00,-22.30,-22.29,-14.85,-14.64
2003-01-13 18:00:00,-21.70,-21.71,-14.25,-14.04
2003-01-13 19:00:00,-21.51,-21.54,-14.07,-13.84
2003-01-13 20:00:00,-21.23,-21.25,-13.79,-13.54
2003-01-13 21:00:00,-20.78,-20.81,-13.35,-13.08
2003-01-13 22:00:00,-20.45,-20.47,-13.02,-12.73
2003-01-13 23:00:00,-20.24,-20.25,-12.80,-12.53
2003-01-14 00:00:00,-20.09,-20.10,-12.62,-12.34
2003-01-14 01:00:00,-20.05,-20.08,-12.55,-12.27
2003-01-14 02:00:00,-20.48,-20.49,-12.99,-12.70
2003-01-14 03:00:00,-20.86,-20.87,-13.30,-13.08
2003-01-14 04:00:00,-21.56,-21.57,-13.96,-13.83
2003-01-14 05:00:00,-23.59,-23.18,-15.72,-15.52
2003-01-14 06:00:00,-23.63,-23.14,-15.68,-15.45
2003-01-14 07:00:00,-25.01,-24.70,-16.77,-16.74
2003-01-14 08:00:00,-26.26,-25.77,-16.85,-16.66
2003-01-14 09:00:00,-25.91,-25.41,-16.13,-15.97
2003-01-14 10:00:00,-25.68,-25.32,-16.13,-15.83
2003-01-14 11:00:00,-24.15,-24.00,-15.01,-14.73
2003-01-14 12:00:00,-22.81,-22.71,-13.90,-13.59
2003-01-14 13:00:00,-22.33,-22.30,-13.60,-13.25
2003-01-14 14:00:00,-22.28,-22.30,-13.51,-13.24
2003-01-14 15:00:00,-22.43,-22.33,-13.63,-13.30
2003-01-14 16:00:00,-23.28,-23.18,-14.32,-14.18
2003-01-14 17:00:00,-24.76,-24.39,-15.55,-15.52
2003-01-14 18:00:00,-26.10,-25.52,-16.71,-16.50
2003-01-14 19:00:00,-25.58,-24.88,-15.86,-15.50
2003-01-14 20:00:00,-23.73,-22.98,-13.88,-13.56
2003-01-14 21:00:00,-23.82,-23.17,-13.79,-13.61
2003-01-14 22:00:00,-22.55,-21.95,-12.92,-12.52
2003-01-14 23:00:00,-21.87,-21.73,-12.35,-12.32
2003-01-15 00:00:00,-24.05,-23.73,-14.62,-14.35
2003-01-15 01:00:00,-24.61,-24.15,-14.93,-14.80
2003-01-15 02:00:00,-24.83,-24.40,-15.09,-15.00
2003-01-15 03:00:00,-24.98,-24.37,-15.26,-14.98
2003-01-15 04:00:00,-24.37,-23.81,-14.80,-14.44
2003-01-15 05:00:00,-23.23,-22.51,-13.35,-13.09
2003-01-15 06:00:00,-21.65,-21.06,-12.08,-11.64
2003-01-15 07:00:00,-21.70,-21.44,-12.19,-11.98
2003-01-15 08:00:00,-21.01,-20.74,-11.67,-11.25
2003-01-15 09:00:00,-21.25,-21.09,-12.00,-11.68
2003-01-15 10:00:00,-21.18,-21.12,-11.98,-11.69
2003-01-15 11:00:00,-21.82,-21.89,-12.69,-12.47
2003-01-15 12:00:00,-21.93,-21.95,-12.91,-12.58
2003-01-15 13:00:00,-20.90,-20.81,-11.79,-11.43
2003-01-15 14:00:00,-20.87,-20.92,-11.79,-11.54
2003-01-15 15:00:00,-21.22,-21.38,-12.24,-12.01
2003-01-15 16:00:00,-21.91,-22.10,-12.97,-12.73
2003-01-15 17:00:00,-23.49,-23.62,-14.20,-14.34
2003-01-15 18:00:00,-26.05,-25.60,-16.64,-16.56
2003-01-15 19:00:00,-27.06,-26.74,-17.42,-17.46
2003-01-15 20:00:00,-27.53,-27.31,-17.97,-17.93
2003-01-15 21:00:00,-29.56,-29.34,-18.83,-18.57
2003-01-15 22:00:00,-28.54,-28.43,-17.46,-17.11
2003-01-15 23:00:00,-21.19,-20.79,-10.39,-9.95
2003-01-16 00:00:00,-18.31,-18.31,-7.13,-7.20
2003-01-16 01:00:00,-18.46,-18.45,-7.21,-6.75
2003-01-16 02:00:00,-18.64,-18.63,-7.29,-6.84
2003-01-16 03:00:00,-18.89,-18.89,-7.46,-7.01
2003-01-16 04:00:00,-19.10,-19.10,-7.63,-7.17
2003-01-16 05:00:00,-19.78,-19.77,-8.27,-7.86
2003-01-16 06:00:00,-20.10,-20.09,-8.63,-8.21
2003-01-16 07:00:00,-20.33,-20.31,-8.88,-8.45
2003-01-16 08:00:00,-20.22,-20.17,-8.72,-8.30
2003-01-16 09:00:00,-20.08,-20.06,-8.63,-8.20
2003-01-16 10:00:00,-19.20,-19.14,-7.71,-7.22
2003-01-16 11:00:00,-18.65,-18.65,-7.16,-6.67
2003-01-16 12:00:00,-18.73,-18.74,-7.22,-6.76
2003-01-16 13:00:00,-18.45,-18.42,-6.92,-6.42
2003-01-16 14:00:00,-18.27,-18.24,-6.72,-6.22
2003-01-16 15:00:00,-18.25,-18.22,-6.75,-6.29
2003-01-16 16:00:00,-18.27,-18.23,-7.02,-6.59
2003-01-16 17:00:00,-18.58,-18.58,-7.30,-6.86
2003-01-16 18:00:00,-19.36,-19.36,-8.04,-7.65
2003-01-16 19:00:00,-20.12,-20.10,-8.84,-8.45
2003-01-16 20:00:00,-20.94,-20.92,-9.65,-9.32
2003-01-16 21:00:00,-21.68,-21.66,-10.42,-10.16
2003-01-16 22:00:00,-22.04,-22.04,-10.80,-10.52
2003-01-16 23:00:00,-22.46,-22.41,-11.21,-10.92
2003-01-17 00:00:00,-22.55,-22.48,-11.31,-10.97
2003-01-17 01:00:00,-21.95,-21.87,-10.72,-10.35
2003-01-17 02:00:00,-22.22,-22.20,-11.01,-10.65
2003-01-17 03:00:00,-22.07,-22.02,-10.82,-10.45
2003-01-17 04:00:00,-21.81,-21.81,-10.59,-10.21
2003-01-17 05:00:00,-22.07,-22.11,-10.84,-10.49
2003-01-17 06:00:00,-21.77,-21.80,-10.54,-10.16
2003-01-17 07:00:00,-21.99,-22.03,-10.74,-10.38
2003-01-17 08:00:00,-22.06,-22.07,-10.78,-10.42
2003-01-17 09:00:00,-23.79,-23.97,-12.46,-12.42
2003-01-17 10:00:00,-24.37,-24.20,-13.10,-12.75
2003-01-17 11:00:00,-24.06,-23.83,-12.70,-12.40
2003-01-17 12:00:00,-23.83,-23.70,-12.52,-12.22
2003-01-17 13:00:00,-23.96,-23.83,-12.65,-12.36
2003-01-17 14:00:00,-23.66,-23.53,-12.31,-11.99
2003-01-17 15:00:00,-23.40,-23.34,-12.13,-11.78
2003-01-17 16:00:00,-23.23,-23.32,-12.03,-11.78
2003-01-17 17:00:00,-23.41,-23.51,-12.28,-11.95
2003-01-17 18:00:00,-23.56,-23.66,-12.45,-12.09
2003-01-17 19:00:00,-23.90,-24.01,-12.79,-12.45
2003-01-17 20:00:00,-23.73,-23.78,-12.66,-12.20
2003-01-17 21:00:00,-23.03,-23.06,-11.96,-11.40
2003-01-17 22:00:00,-22.18,-22.24,-11.06,-10.53
2003-01-17 23:00:00,-23.52,-23.71,-11.90,-12.08
2003-01-18 00:00:00,-24.76,-24.89,-13.77,-13.33
2003-01-18 01:00:00,-25.03,-25.17,-13.70,-13.70
2003-01-18 02:00:00,-25.61,-25.71,-14.55,-14.21
2003-01-18 03:00:00,-26.26,-26.29,-14.95,-14.86
2003-01-18 04:00:00,-26.89,-26.68,-15.43,-15.43
2003-01-18 05:00:00,-25.75,-25.78,-14.70,-14.31
2003-01-18 06:00:00,-24.30,-24.36,-13.49,-12.74
2003-01-18 07:00:00,-24.98,-25.14,-13.67,-13.66
2003-01-18 08:00:00,-25.51,-25.62,-14.28,-14.22
2003-01-18 09:00:00,-25.77,-25.81,-14.55,-14.43
2003-01-18 10:00:00,-26.28,-26.18,-14.72,-14.85
2003-01-18 11:00:00,-26.16,-26.24,-15.19,-14.75
2003-01-18 12:00:00,-25.92,-25.98,-14.59,-14.67
2003-01-18 13:00:00,-26.04,-26.09,-14.84,-14.75
2003-01-18 14:00:00,-26.20,-26.29,-15.07,-14.95
2003-01-18 15:00:00,-26.61,-26.70,-15.34,-15.39
2003-01-18 16:00:00,-27.13,-27.25,-15.88,-15.93
2003-01-18 17:00:00,-27.19,-27.34,-16.15,-15.94
2003-01-18 18:00:00,-26.74,-26.87,-15.71,-15.43
2003-01-18 19:00:00,-26.47,-26.58,-15.40,-15.15
2003-01-18 20:00:00,-26.86,-26.97,-15.59,-15.64
2003-01-18 21:00:00,-27.42,-27.48,-16.16,-16.22
2003-01-18 22:00:00,-27.49,-27.60,-16.46,-16.20
2003-01-18 23:00:00,-25.05,-25.50,-14.39,-13.82
2003-01-19 00:00:00,-25.06,-25.40,-14.14,-13.66
2003-01-19 01:00:00,-24.49,-24.82,-13.44,-13.04
2003-01-19 02:00:00,-24.20,-24.51,-13.06,-12.75
2003-01-19 03:00:00,-24.27,-24.52,-13.08,-12.80
2003-01-19 04:00:00,-24.67,-24.87,-13.52,-13.24
2003-01-19 05:00:00,-24.70,-24.78,-13.54,-13.26
2003-01-19 06:00:00,-24.66,-24.69,-13.53,-13.22
2003-01-19 07:00:00,-24.35,-24.38,-13.20,-12.89
2003-01-19 08:00:00,-24.03,-24.05,-12.86,-12.55
2003-01-19 09:00:00,-23.99,-24.00,-12.79,-12.50
2003-01-19 10:00:00,-23.66,-23.65,-12.44,-12.14
2003-01-19 11:00:00,-23.39,-23.34,-12.14,-11.86
2003-01-19 12:00:00,-23.78,-23.66,-12.44,-12.19
2003-01-19 13:00:00,-24.67,-24.31,-13.09,-12.94
2003-01-19 14:00:00,-24.22,-23.94,-12.85,-12.61
2003-01-19 15:00:00,-23.66,-23.53,-12.41,-12.11
2003-01-19 16:00:00,-23.48,-23.34,-12.19,-11.91
2003-01-19 17:00:00,-23.99,-23.86,-12.62,-12.39
2003-01-19 18:00:00,-25.46,-25.15,-13.96,-13.79
2003-01-19 19:00:00,-25.91,-25.43,-14.34,-14.11
2003-01-19 20:00:00,-26.40,-25.97,-15.04,-14.86
2003-01-19 21:00:00,-26.76,-26.37,-15.65,-15.44
2003-01-19 22:00:00,-28.48,-28.02,-16.66,-16.55
2003-01-19 23:00:00,-33.51,-32.92,-18.13,-18.05
2003-01-20 00:00:00,-35.79,-35.30,-19.18,-19.19
2003-01-20 01:00:00,-37.38,-36.80,-20.57,-20.53
2003-01-20 02:00:00,-39.38,-38.71,-19.42,-19.24
2003-01-20 03:00:00,-94.60,-94.70,-20.18,-19.93
2003-01-20 04:00:00,-123.30,-121.80,-19.57,-19.43
2003-01-20 05:00:00,-23.07,-22.31,-20.05,-19.78
2003-01-20 06:00:00,-23.16,-22.56,-20.04,-20.01
2003-01-20 07:00:00,-22.11,-21.46,-19.20,-18.94
2003-01-20 08:00:00,-22.48,-22.10,-19.57,-19.49
2003-01-20 09:00:00,-23.09,-22.47,-20.23,-20.06
2003-01-20 10:00:00,-21.92,-21.38,-18.95,-18.86
2003-01-20 11:00:00,-65.67,-64.80,-17.99,-17.50
2003-01-20 12:00:00,-238.20,-238.20,-16.51,-16.30
2003-01-20 13:00:00,-238.80,-238.80,-16.59,-16.43
2003-01-20 14:00:00,-238.80,-238.70,-16.54,-16.34
2003-01-20 15:00:00,-239.00,-239.00,-16.56,-16.41
2003-01-20 16:00:00,-239.30,-239.10,-16.54,-16.34
2003-01-20 17:00:00,-239.40,-239.30,-16.60,-16.42
2003-01-20 18:00:00,-239.40,-239.30,-16.90,-16.71
2003-01-20 19:00:00,-239.50,-239.50,-17.10,-16.97
2003-01-20 20:00:00,-239.60,-239.60,-17.76,-17.61
2003-01-20 21:00:00,-239.60,-239.60,-17.41,-17.22
2003-01-20 22:00:00,-239.70,-239.60,-16.85,-16.54
2003-01-20 23:00:00,-239.50,-239.50,-16.61,-16.45
2003-01-21 00:00:00,-239.50,-239.40,-18.41,-18.47
2003-01-21 01:00:00,-239.80,-239.70,-19.92,-19.88
2003-01-21 02:00:00,-239.90,-239.80,-20.39,-20.35
2003-01-21 03:00:00,-240.20,-240.20,-20.50,-20.40
2003-01-21 04:00:00,-240.20,-240.10,-20.30,-20.13
2003-01-21 05:00:00,-240.10,-240.00,-20.31,-20.27
2003-01-21 06:00:00,-240.40,-240.30,-20.68,-20.63
2003-01-21 07:00:00,-240.50,-240.40,-21.01,-21.10
2003-01-21 08:00:00,-78.60,-78.00,-22.03,-22.08
2003-01-21 09:00:00,-25.55,-24.95,-22.26,-22.16
2003-01-21 10:00:00,-25.77,-25.37,-21.72,-21.65
2003-01-21 11:00:00,-24.64,-24.14,-20.67,-20.43
2003-01-21 12:00:00,-22.87,-22.39,-18.76,-18.55
2003-01-21 13:00:00,-21.75,-21.37,-17.34,-17.34
2003-01-21 14:00:00,-23.46,-23.15,-18.66,-18.58
2003-01-21 15:00:00,-26.14,-25.77,-17.87,-17.40
2003-01-21 16:00:00,-24.32,-24.26,-15.50,-15.19
2003-01-21 17:00:00,-38.04,-38.12,-15.76,-15.62
2003-01-21 18:00:00,-49.14,-49.90,-16.50,-16.19
2003-01-21 19:00:00,-239.70,-239.60,-15.71,-15.54
2003-01-21 20:00:00,-239.90,-239.80,-15.77,-15.66
2003-01-21 21:00:00,-239.50,-239.30,-16.28,-16.15
2003-01-21 22:00:00,-239.50,-239.40,-16.72,-16.68
2003-01-21 23:00:00,-240.00,-239.90,-16.49,-16.22